Погода в Джамби

Индонезия     1°37′17″S   103°36′42″E
темп.,
°C
ветер,
м/с
пор.,
м/с
влажн.,
%
обл.,
%
осадки,
мм/ч
давл.,
гПа
погр.,
м
28 января, чт
чт2801:00+23зсз1192100 0.4 101024
04:00+23зюз1297100 1.7 100968
07:00+23з1197100 2.6 101157
10:00+26ссз1386100 0.3 1012445
13:00+25юз1394100 0.9 1009169
16:00+27с258572 3.3 1007617
19:00+24ссв129776 4.2 100978
22:00+23с1297100 1.2 101183
29 января, пт
пт2901:00+23ссз2897100 4.4 1010262
04:00+23зсз2797100 5.4 1009247
07:00+23з1398100 8.8 1011130
10:00+24сз2694100 3.1 1012375
13:00+25ссз2692100 4.9 1010536
16:00+26ссз258989 2.6 1008587
19:00+24сз129589 5.0 101028
22:00+23з119799 0.9 101231
30 января, сб
сб3001:00+23ссз1196100 0.9 101123
04:00+22сз1497100 0.0 1010130
07:00+22сз1697100 0.0 1011260
10:00+27ссз2573100 0.0 1012890
13:00+31ссз2460100 0.3 10101395
16:00+27ссв3685100 3.3 1008672
19:00+24с1596100 6.4 1010166
22:00+23с2896100 1.3 1012305
31 января, вс
вс3101:00+23ссз1598100 3.8 1012208
04:00+23ссз2897100 1.0 1010351
07:00+23сз289796 1.0 1011325
10:00+28ссз257778 0.3 1013710
13:00+29сз237885 3.4 1011905
16:00+28с2477100 1.1 1008766
19:00+25с1293100 2.4 101064
22:00+24ссз139595 0.0 1012100
1 февраля, пн
пн101:00+23ссз139796 0.0 1012118
04:00+23сз169898 0.0 1010232
07:00+23сз169699 0.0 1012246
10:00+28сз2578100 0.4 1013826
13:00+28с3584100 4.4 1010774
16:00+27с2588100 4.0 1008625
19:00+24с279798 6.1 1010399
22:00+23ссз289774 0.0 1012441